DW8932 Weather Reports


time (UTC)temp
C
wind
direction
speed
KPH
gust
KPH
rain 1hr
cm
rain 24hr
cm
rain mn
cm
humidity
%
barometer
mb
20260508074705 8 222 3.2 14.5 0.00 0.00 0.00 77 1012.5
20260508074204 8 236 4.8 14.5 0.00 0.00 0.00 77 1012.5
20260508073704 8 266 1.6 16.1 0.00 0.00 0.00 76 1012.5
20260508073205 8 227 3.2 16.1 0.00 0.00 0.00 76 1012.5
20260508072705 8 218 9.7 19.3 0.00 0.00 0.00 75 1012.5
20260508071705 8 202 4.8 16.1 0.00 0.00 0.00 74 1012.5
20260508071205 8 222 8.0 20.9 0.00 0.00 0.00 73 1012.5
20260508065704 8 227 9.7 19.3 0.00 0.00 0.00 72 1012.5
20260508065204 8 248 3.2 14.5 0.00 0.00 0.00 72 1012.5
20260508064704 8 225 3.2 11.3 0.00 0.00 0.00 72 1012.5
20260508064205 8 222 4.8 9.7 0.00 0.00 0.00 72 1012.5
20260508063704 8 226 1.6 11.3 0.00 0.00 0.00 72 1012.5
20260508063205 8 218 3.2 9.7 0.00 0.00 0.00 72 1012.5
20260508062204 8 189 0.0 4.8 0.00 0.00 0.00 72 1012.5
20260508061705 8 194 0.0 0.0 0.00 0.00 0.00 73 1012.5
20260508061204 8 197 0.0 0.0 0.00 0.00 0.00 73 1013.1
20260508060704 8 206 0.0 0.0 0.00 0.00 0.00 73 1013.1
20260508060204 8 203 0.0 0.0 0.00 0.00 0.00 73 1013.1
20260508055705 8 183 1.6 4.8 0.00 0.00 0.00 73 1013.1
20260508055204 8 167 0.0 0.0 0.00 0.00 0.00 73 1013.1
20260508052705 8 194 0.0 0.0 0.00 0.00 0.00 72 1013.1
20260508052205 8 193 0.0 0.0 0.00 0.00 0.00 72 1013.1
20260508051205 8 230 0.0 0.0 0.00 0.00 0.00 72 1013.1
20260508050704 8 213 0.0 0.0 0.00 0.00 0.00 72 1013.1
20260508050204 8 210 0.0 0.0 0.00 0.00 0.00 71 1013.1
20260508045205 8 196 0.0 8.0 0.00 0.00 0.00 71 1013.1
20260508044704 8 223 1.6 8.0 0.00 0.00 0.00 71 1013.1
20260508044205 8 238 0.0 8.0 0.00 0.00 0.00 71 1013.1
20260508043704 8 218 1.6 8.0 0.00 0.00 0.00 71 1013.1
20260508043205 8 220 1.6 8.0 0.00 0.00 0.00 71 1013.1
20260508041705 8 240 3.2 8.0 0.00 0.00 0.00 71 1013.1
20260508040704 8 227 0.0 4.8 0.00 0.00 0.00 70 1013.1
20260508040204 7 225 4.8 9.7 0.00 0.00 0.00 71 1013.1
20260508035705 7 248 3.2 14.5 0.00 0.00 0.00 71 1013.1
20260508034704 7 213 3.2 11.3 0.00 0.00 0.00 71 1013.2
20260508034205 7 240 3.2 8.0 0.00 0.00 0.00 71 1013.2
20260508033205 6 218 1.6 9.7 0.00 0.00 0.00 72 1013.3
20260508032704 6 226 0.0 0.0 0.00 0.00 0.00 72 1013.3
20260508032205 6 236 0.0 0.0 0.00 0.00 0.00 72 1013.2
20260508031204 6 210 0.0 0.0 0.00 0.00 0.00 72 1013.2
20260508030704 6 211 0.0 0.0 0.00 0.00 0.00 72 1013.2
20260508030204 6 213 0.0 0.0 0.00 0.00 0.00 72 1013.2
20260508025705 6 212 0.0 0.0 0.00 0.00 0.00 72 1013.2
20260508025204 6 230 0.0 0.0 0.00 0.00 0.00 72 1013.2
20260508024704 6 228 0.0 0.0 0.00 0.00 0.00 72 1013.2
20260508023705 6 229 0.0 0.0 0.00 0.00 0.00 71 1013.1
20260508022704 6 229 0.0 0.0 0.00 0.00 0.00 71 1013.0
20260508021205 6 279 0.0 0.0 0.00 0.00 0.00 70 1013.0
20260508020205 7 279 0.0 0.0 0.00 0.00 0.00 68 1012.9
20260508015204 7 279 0.0 0.0 0.00 0.00 0.00 67 1012.7
20260508014704 7 279 0.0 0.0 0.00 0.00 0.00 65 1012.7
20260508014204 7 279 0.0 0.0 0.00 0.00 0.00 64 1012.7
20260508013704 7 279 0.0 0.0 0.00 0.00 0.00 64 1012.7
20260508013204 8 279 0.0 0.0 0.00 0.00 0.00 64 1012.7
20260508012704 8 279 0.0 0.0 0.00 0.00 0.00 63 1012.6
20260508012204 8 279 0.0 0.0 0.00 0.00 0.00 62 1012.6
20260508011204 8 279 0.0 0.0 0.00 0.00 0.00 59 1012.6
20260508010704 9 279 0.0 0.0 0.00 0.00 0.00 57 1012.6
20260508010205 9 279 0.0 0.0 0.00 0.00 0.00 56 1012.6
20260508005705 9 279 0.0 0.0 0.00 0.00 0.00 55 1012.6
20260508005204 10 279 0.0 0.0 0.00 0.00 0.00 55 1012.6
20260508004204 10 279 0.0 0.0 0.00 0.00 0.00 54 1012.6
20260508002704 10 299 1.6 9.7 0.00 0.00 0.00 53 1012.6
20260508001705 10 276 3.2 9.7 0.00 0.00 0.00 52 1012.4
20260508001205 10 288 3.2 12.9 0.00 0.00 0.00 51 1012.4
20260508000205 11 294 8.0 14.5 0.00 0.00 0.00 50 1012.4
20260507235705 11 292 9.7 16.1 0.00 0.00 0.00 49 1012.4
20260507235205 11 276 6.4 19.3 0.00 0.00 0.00 49 1012.3
20260507234705 11 312 12.9 20.9 0.00 0.00 0.00 48 1012.3
20260507234204 11 300 11.3 19.3 0.00 0.00 0.00 50 1012.3
20260507233704 12 280 9.7 19.3 0.00 0.00 0.00 50 1012.5
20260507232705 12 284 9.7 25.7 0.00 0.00 0.00 49 1012.5
20260507232205 12 300 17.7 24.1 0.00 0.00 0.00 47 1012.5
20260507231704 12 310 12.9 24.1 0.00 0.00 0.00 48 1012.5
20260507231205 12 312 12.9 20.9 0.00 0.00 0.00 48 1012.5
20260507230704 12 300 9.7 24.1 0.00 0.00 0.00 47 1012.5
20260507230205 12 301 19.3 25.7 0.00 0.00 0.00 46 1012.5
20260507225705 12 291 17.7 32.2 0.00 0.00 0.00 47 1012.5
20260507225204 12 309 14.5 24.1 0.00 0.00 0.00 48 1012.5
20260507224705 12 297 9.7 29.0 0.00 0.00 0.00 47 1012.5
20260507224205 13 314 14.5 24.1 0.00 0.00 0.00 47 1012.5
20260507223704 13 298 16.1 32.2 0.00 0.00 0.00 47 1012.5
20260507223204 13 290 12.9 32.2 0.00 0.00 0.00 48 1012.5
20260507222704 13 297 14.5 24.1 0.00 0.00 0.00 47 1012.5
20260507222204 13 299 17.7 32.2 0.00 0.00 0.00 47 1012.5
20260507221705 13 317 19.3 29.0 0.00 0.00 0.00 46 1012.5
20260507221204 13 298 14.5 24.1 0.00 0.00 0.00 48 1012.5
20260507220704 13 287 12.9 33.8 0.00 0.00 0.00 47 1012.5
20260507215704 12 278 16.1 32.2 0.00 0.00 0.00 46 1012.4
20260507215204 13 291 16.1 32.2 0.00 0.00 0.00 45 1012.4
20260507214704 13 279 16.1 35.4 0.00 0.00 0.00 45 1012.2
20260507214205 13 287 16.1 32.2 0.00 0.00 0.00 46 1012.2
20260507213705 13 280 19.3 40.2 0.00 0.00 0.00 47 1012.2
20260507213204 13 283 16.1 29.0 0.00 0.00 0.00 48 1012.3
20260507212705 13 294 17.7 29.0 0.00 0.00 0.00 49 1012.4
20260507212204 12 292 14.5 32.2 0.00 0.00 0.00 54 1012.4
20260507211704 12 297 16.1 29.0 0.00 0.00 0.00 54 1012.4
20260507211205 12 308 12.9 32.2 0.00 0.00 0.00 55 1012.2
20260507210705 13 284 16.1 32.2 0.00 0.00 0.00 54 1012.2
20260507210204 13 286 16.1 22.5 0.00 0.00 0.00 57 1012.1
20260507205705 13 304 12.9 22.5 0.00 0.00 0.00 57 1012.1
20260507205204 12 300 14.5 20.9 0.00 0.00 0.00 60 1012.0
20260507204704 12 301 9.7 19.3 0.00 0.00 0.00 60 1012.0
20260507203205 11 297 11.3 19.3 0.00 0.00 0.00 60 1012.0
20260507202705 11 294 9.7 20.9 0.00 0.00 0.00 60 1011.9
20260507202205 11 307 16.1 22.5 0.00 0.00 0.00 59 1011.9
20260507201205 12 298 16.1 32.2 0.00 0.00 0.00 58 1011.9
20260507200704 12 303 17.7 29.0 0.00 0.00 0.00 58 1011.9
20260507194705 12 312 14.5 29.0 0.00 0.00 0.00 56 1012.1
20260507194204 12 325 8.0 20.9 0.00 0.00 0.00 58 1012.1
20260507193704 12 316 16.1 22.5 0.00 0.00 0.00 58 1012.1
20260507193205 12 317 11.3 19.3 0.00 0.00 0.00 58 1012.1
20260507191704 13 276 3.2 12.9 0.00 0.00 0.00 59 1012.1
20260507191204 13 277 11.3 16.1 0.00 0.00 0.00 57 1012.1
20260507190705 13 288 8.0 19.3 0.00 0.00 0.00 56 1012.1
20260507190205 13 292 14.5 20.9 0.00 0.00 0.00 56 1012.1
20260507185705 13 305 6.4 14.5 0.00 0.00 0.00 58 1012.1
20260507184705 13 287 8.0 22.5 0.00 0.00 0.00 57 1012.1
20260507184204 13 302 12.9 24.1 0.00 0.00 0.00 61 1012.2
20260507183704 12 292 9.7 19.3 0.00 0.00 0.00 60 1012.3
20260507183204 12 322 11.3 16.1 0.00 0.00 0.00 58 1012.3
20260507182704 12 231 3.2 19.3 0.00 0.00 0.00 59 1012.3
20260507182205 12 285 9.7 16.1 0.00 0.00 0.00 61 1012.3
20260507181705 12 301 11.3 22.5 0.00 0.00 0.00 58 1012.3
20260507181204 12 306 11.3 19.3 0.00 0.00 0.00 59 1012.3
20260507180704 12 293 12.9 20.9 0.00 0.00 0.00 57 1012.3
20260507180204 12 286 11.3 22.5 0.00 0.00 0.00 59 1012.3
20260507175704 12 291 8.0 20.9 0.00 0.00 0.00 56 1012.3
20260507175204 12 316 14.5 25.7 0.00 0.00 0.00 59 1012.3
20260507174204 12 0 8.0 19.3 0.00 0.00 0.00 55 1012.4
20260507173704 12 321 11.3 19.3 0.00 0.00 0.00 55 1012.4
20260507173205 13 316 12.9 22.5 0.00 0.00 0.00 52 1012.4
20260507172205 12 309 14.5 20.9 0.00 0.00 0.00 56 1012.5
20260507171705 12 292 9.7 14.5 0.00 0.00 0.00 56 1012.5
20260507171204 12 326 11.3 19.3 0.00 0.00 0.00 55 1012.5
20260507170705 12 338 8.0 19.3 0.00 0.00 0.00 60 1012.5
20260507170205 12 276 8.0 16.1 0.00 0.00 0.00 55 1012.5
20260507165204 13 312 11.3 20.9 0.00 0.00 0.00 56 1012.5
20260507164705 12 330 3.2 19.3 0.00 0.00 0.00 58 1012.5
20260507164205 12 289 0.0 12.9 0.00 0.00 0.00 58 1012.5
20260507163704 12 300 9.7 19.3 0.00 0.00 0.00 58 1012.5
20260507163204 12 328 4.8 14.5 0.00 0.00 0.00 56 1012.5
20260507162705 12 12 8.0 20.9 0.00 0.00 0.00 62 1012.5
20260507162205 12 314 6.4 14.5 0.00 0.00 0.00 61 1012.6
20260507161704 12 267 6.4 14.5 0.00 0.00 0.00 59 1012.6
20260507161204 12 340 4.8 14.5 0.00 0.00 0.00 60 1012.6
20260507160705 12 299 9.7 19.3 0.00 0.00 0.00 60 1012.6
20260507160205 12 20 9.7 14.5 0.00 0.00 0.00 62 1012.6
20260507155704 12 332 8.0 14.5 0.00 0.00 0.00 64 1012.6
20260507155205 12 311 3.2 11.3 0.00 0.00 0.00 62 1012.6
20260507154705 12 322 3.2 9.7 0.00 0.00 0.00 62 1012.6
20260507154204 12 336 4.8 11.3 0.00 0.00 0.00 61 1012.6
20260507153204 12 326 4.8 16.1 0.00 0.00 0.00 61 1012.6
20260507152705 12 17 8.0 12.9 0.00 0.00 0.00 56 1012.6
20260507152205 12 326 12.9 19.3 0.00 0.00 0.00 59 1012.6
20260507151704 12 303 4.8 12.9 0.00 0.00 0.00 57 1012.6
20260507151205 12 305 9.7 19.3 0.00 0.00 0.00 56 1012.6
20260507150204 13 303 4.8 12.9 0.00 0.00 0.00 54 1012.6
20260507145704 13 261 4.8 14.5 0.00 0.00 0.00 55 1012.6
20260507145204 13 301 8.0 16.1 0.00 0.00 0.00 56 1012.6
20260507144704 13 291 4.8 19.3 0.00 0.00 0.00 58 1012.6
20260507144205 13 315 9.7 12.9 0.00 0.00 0.00 60 1012.6
20260507142704 13 315 4.8 14.5 0.00 0.00 0.00 60 1012.6
20260507142204 12 301 3.2 12.9 0.00 0.00 0.00 60 1013.0
20260507141705 12 254 1.6 9.7 0.00 0.00 0.00 62 1013.0
20260507140705 12 305 4.8 11.3 0.00 0.00 0.00 67 1013.0
20260507140204 12 282 3.2 12.9 0.00 0.00 0.00 67 1013.0
20260507135705 12 288 6.4 12.9 0.00 0.00 0.00 66 1013.1
20260507134704 11 241 0.0 0.0 0.00 0.00 0.00 68 1013.3
20260507134204 11 311 0.0 0.0 0.00 0.00 0.00 71 1013.3
20260507133705 11 283 0.0 0.0 0.00 0.00 0.00 70 1013.3
20260507132204 10 296 0.0 0.0 0.00 0.00 0.00 73 1013.3
20260507131704 10 288 0.0 0.0 0.00 0.00 0.00 73 1013.3
20260507125205 8 271 0.0 0.0 0.00 0.00 0.00 74 1012.8
20260507124705 8 273 0.0 0.0 0.00 0.00 0.00 75 1012.8
20260507124205 8 263 0.0 0.0 0.00 0.00 0.00 76 1012.8
20260507123704 8 263 0.0 0.0 0.00 0.00 0.00 77 1012.8
20260507123204 8 263 0.0 1.6 0.00 0.00 0.00 77 1012.8
20260507122705 7 259 1.6 9.7 0.00 0.00 0.00 77 1012.8
20260507122205 7 285 6.4 11.3 0.00 0.00 0.00 77 1012.8
20260507115705 7 261 6.4 14.5 0.00 0.00 0.00 80 1012.8
20260507115204 6 252 8.0 11.3 0.00 0.00 0.00 81 1012.8
20260507114705 6 284 8.0 11.3 0.00 0.00 0.00 82 1012.8
20260507114205 6 199 1.6 9.7 0.00 0.00 0.00 83 1012.8
20260507113705 6 218 0.0 11.3 0.00 0.00 0.00 85 1012.8
20260507113204 5 224 1.6 8.0 0.00 0.00 0.00 85 1012.8
20260507110705 5 189 0.0 0.0 0.00 0.00 0.00 85 1012.7
20260507110205 5 186 0.0 0.0 0.00 0.00 0.00 85 1012.7
20260507105704 5 186 0.0 0.0 0.00 0.00 0.00 85 1012.7
20260507105204 5 177 0.0 0.0 0.00 0.00 0.00 85 1012.7
20260507104205 5 173 0.0 0.0 0.00 0.00 0.00 85 1012.5
20260507103704 5 173 0.0 0.0 0.00 0.00 0.00 84 1012.5
20260507102705 4 163 0.0 0.0 0.00 0.00 0.00 84 1012.5
20260507101704 5 180 0.0 0.0 0.00 0.00 0.00 84 1012.5
20260507100704 5 180 0.0 0.0 0.00 0.00 0.00 84 1012.5
20260507100205 5 180 0.0 1.6 0.00 0.00 0.00 84 1012.5
20260507095704 5 181 0.0 4.8 0.00 0.00 0.00 83 1012.5
20260507095205 5 182 1.6 4.8 0.00 0.00 0.00 83 1012.5
20260507094704 5 193 1.6 4.8 0.00 0.00 0.00 83 1012.5
20260507094205 5 178 0.0 0.0 0.00 0.00 0.00 82 1012.5
20260507092704 5 177 0.0 0.0 0.00 0.03 0.00 82 1012.6
20260507092204 5 182 0.0 0.0 0.00 0.03 0.00 82 1012.6
20260507091704 5 182 0.0 0.0 0.00 0.03 0.00 82 1012.6
20260507091204 5 178 0.0 0.0 0.00 0.05 0.00 82 1012.6
20260507090704 5 191 0.0 0.0 0.00 0.05 0.00 82 1012.6
20260507090205 5 188 0.0 0.0 0.00 0.05 0.00 82 1012.6
20260507085204 5 208 0.0 0.0 0.00 0.05 0.00 82 1012.6
20260507084704 5 198 0.0 0.0 0.00 0.05 0.00 82 1012.6
20260507084205 5 175 0.0 0.0 0.00 0.05 0.00 82 1012.6
20260507083204 5 178 0.0 0.0 0.00 0.08 0.00 82 1012.7
20260507082704 5 183 0.0 0.0 0.00 0.08 0.00 82 1012.7
20260507081705 5 172 1.6 8.0 0.00 0.10 0.00 82 1012.8
20260507075704 5 184 0.0 0.0 0.00 0.18 0.00 81 1012.8